Tracking 34717 objects as of 14-Jul-2026
HD Live streaming from Space Station
objects crossing your sky now

ARIANE 44L DEB

Track ARIANE 44L DEB now!
10-day predictions


NORAD ID: 24751
Int'l Code: 1991-003K
Perigee: 524.1 km
Apogee: 22,609.2 km
Inclination: 7.9 °
Period: 398.5 minutes
Semi major axis: 17937 km
RCS: 0.9341 m2 (medium)
Launch date: January 15, 1991
Source: France (FR)
Launch site: FRENCH GUIANA (FRGUI)

Note: This is SATELLITE DEBRIS
Your satellite tracking list
Your tracking list is empty




NASA's NSSDC Master Catalog

Two Line Element Set (TLE):
1 24751U 91003K   26195.18136562 -.00000232  00000-0 -58724-3 0  9995
2 24751   7.8817 162.0280 6156072 198.9350 120.5258  3.61371796355901
Source of the keplerian elements: AFSPC